STARLINK-3755 (52307 NORAD) Tracking and Keplerian Element Data

This shows tracking and keplerian element data for the satellite.

Feedback or suggestion? Click here.




ElementValue
Catalog52307
NameSTARLINK-3755
Epoch Orbit130
Epoch Day167.08334491
Epoch Year2022
RAAN101.5144
Inclination53.2173
Eccentricity0.0001193
Argument of Perigee90.7228
Mean Anonmoly188.4455
Mean Motion15.5499724
Decay Rate-0.00712549
L11 52307U 22041AY 22167.08334491 -.00712549 00000+0 -11407-1 0 9999
L22 52307 53.2173 101.5144 0001193 90.7228 188.4455 15.54997240 1303

Live tracking and technical data element details for STARLINK-3755 (NORAD 52307). STARLINK-3755 can be tracked NOW for your location showing map with azimuth and elevation plus other details from your city location.

Track the satellite on the map from your city or location and see movement details for azimuth, elevation, latitude, longitude, range, height, and movement on the map or in text.







IsCatalogInMostPopularTable: catalog: 52307, numindb: 6
Update: records affected: 1



GetName: 52307 STARLINK-3755

Hit Count: updated at: Sat, 25 Jun 2022 04:10:39 GMT